Buffalo, SD

5:37 AM MDT on April 23, 2017 (GMT -0600)
Buffalo

Weather History for K2WX - November, 2012

Change the Weather History Date:

Thursday, November 15, 2012

  Actual Average Record
Temperature  
Mean Temperature 35 °F 32 °F  
Max Temperature 48 °F 43 °F 71 °F (1999)
Min Temperature 22 °F 22 °F -4 °F (2014)
Degree Days  
Heating Degree Days 30 33  
Month to date heating degree days 448 439  
Since 1 July heating degree days 1260 1340  
Cooling Degree Days 0 0  
Month to date cooling degree days 0 0  
Year to date cooling degree days 853 513  
Moisture  
Dew Point 25 °F    
Average Humidity 65    
Maximum Humidity 92    
Minimum Humidity 38    
Precipitation  
Precipitation 0.00 in 0.00 in 0.01 in (2010)
Month to date precipitation 0.11 0.28  
Year to date precipitation 8.28 14.20  
Sea Level Pressure  
Sea Level Pressure 30.29 in    
Wind  
Wind Speed 11 mph (South)    
Max Wind Speed 22 mph    
Max Gust Speed 26 mph    
T = Trace of Precipitation, MM = Missing Value Source: NWS Daily Summary

Daily Weather History Graph

Daily Weather History Graph

Search for Another Location

Airport or City:

Trip Planner

Search our weather history database for the weather conditions in past years. The results will help you decide how hot, cold, wet, or windy it might be!

Date:

Astronomy

Nov. 15, 2012 Rise Set
Actual Time 6:54 AM MST 4:23 PM MST
Civil Twilight 6:21 AM MST 4:55 PM MST
Nautical Twilight 5:45 AM MST 5:31 PM MST
Astronomical Twilight 5:10 AM MST 6:06 PM MST
Moon 8:55 AM MST (11/15) 6:13 PM MST (11/15)
Length of Visible Light 10h 33m
Length of Day
9h 28m
Waxing Crescent, 5% of the Moon is Illuminated
Nov 15
Waxing Crescent
Nov 20
First Quarter
Nov 28
Full
Dec 6
Last Quarter
Dec 13
New

Hourly Weather History & Observations

Time (MST) Temp. Windchill Dew Point Humidity Pressure Visibility Wind Dir Wind Speed Gust Speed Precip Events Conditions
12:56 AM 30.0 °F 19.5 °F 26.1 °F 85% 30.19 in - NW 13.8 mph - N/A   Unknown
1:56 AM 28.9 °F 19.2 °F 25.0 °F 85% 30.22 in - NW 11.5 mph - N/A   Unknown
2:56 AM 30.0 °F 19.5 °F 26.1 °F 85% 30.24 in - NW 13.8 mph - N/A   Unknown
3:56 AM 28.9 °F - 25.0 °F 85% 30.27 in - Calm Calm - N/A   Unknown
4:56 AM 28.0 °F 20.0 °F 24.1 °F 85% 30.31 in - NW 8.1 mph - N/A   Unknown
5:56 AM 25.0 °F 18.1 °F 23.0 °F 92% 30.33 in - West 5.8 mph - N/A   Unknown
6:56 AM 25.0 °F 17.1 °F 23.0 °F 92% 30.35 in - WNW 6.9 mph - N/A   Unknown
7:56 AM 25.0 °F 20.7 °F 23.0 °F 92% 30.39 in - WSW 3.5 mph - N/A   Unknown
8:56 AM 28.9 °F 25.2 °F 26.1 °F 89% 30.38 in - SSE 3.5 mph - N/A   Unknown
9:56 AM 37.0 °F 34.5 °F 28.9 °F 73% 30.38 in - SE 3.5 mph - N/A   Unknown
10:56 AM 42.1 °F 37.7 °F 30.0 °F 62% 30.36 in - SSE 6.9 mph - N/A   Unknown
11:56 AM 46.0 °F 39.9 °F 23.0 °F 40% 30.32 in - South 13.8 mph - N/A   Unknown
12:56 PM 46.9 °F - 24.1 °F 41% 30.30 in - South 12.7 mph - N/A   Unknown
1:56 PM 48.0 °F - 25.0 °F 41% 30.28 in - SSE 16.1 mph - N/A   Unknown
2:56 PM 46.9 °F - 25.0 °F 42% 30.28 in - SSE 17.3 mph - N/A   Unknown
3:56 PM 42.1 °F 34.5 °F 25.0 °F 51% 30.29 in - SE 15.0 mph - N/A   Unknown
4:56 PM 37.0 °F 28.5 °F 25.0 °F 62% 30.30 in - SE 13.8 mph - N/A   Unknown
5:56 PM 33.1 °F 23.0 °F 25.0 °F 72% 30.31 in - SE 15.0 mph - N/A   Unknown
6:56 PM 32.0 °F 22.1 °F 26.1 °F 79% 30.30 in - SE 13.8 mph - N/A   Unknown
7:56 PM 33.1 °F 24.4 °F 26.1 °F 75% 30.29 in - SE 11.5 mph - N/A   Unknown
8:56 PM 32.0 °F 25.6 °F 26.1 °F 79% 30.27 in - SE 6.9 mph - N/A   Unknown
9:56 PM 30.9 °F 21.2 °F 26.1 °F 82% 30.22 in - SSE 12.7 mph - N/A   Unknown
10:56 PM 30.0 °F 17.9 °F 26.1 °F 85% 30.18 in - SSE 18.4 mph - N/A   Unknown
11:56 PM 28.9 °F 16.5 °F 26.1 °F 89% 30.14 in - SSE 18.4 mph - N/A   Unknown